WB6ANP Weather Reports


time (UTC)temp
F
wind
direction
speed
knots
gust
knots
rain 1hr
in
rain 24hr
in
rain mn
in
humidity
%
barometer
mb
20260506062034 58 76 6.1 7.8 0.00 0.00 0.00 80 1009.4
20260506061529 58 85 7.8 8.7 0.00 0.00 0.00 80 1009.3
20260506061027 59 68 9.6 10.4 0.00 0.00 0.00 80 1009.7
20260506060525 59 74 3.5 8.7 0.00 0.00 0.00 80 1009.8
20260506050954 59 56 2.6 7.0 0.00 0.00 0.00 78 1009.9
20260506050452 59 59 1.7 7.0 0.00 0.00 0.00 78 1009.8
20260506044942 60 64 5.2 6.1 0.00 0.00 0.00 77 1010.0
20260506044441 60 52 0.9 7.8 0.00 0.00 0.00 76 1009.9
20260506043937 60 23 7.0 8.7 0.00 0.00 0.00 76 1009.8
20260506043434 60 54 3.5 6.1 0.00 0.00 0.00 77 1009.8
20260506042932 60 32 4.3 4.3 0.00 0.00 0.00 77 1009.8
20260506042431 60 88 0.0 7.0 0.00 0.00 0.00 76 1009.9
20260506041929 60 61 4.3 7.8 0.00 0.00 0.00 76 1009.9
20260506041426 60 67 2.6 5.2 0.00 0.00 0.00 76 1009.9
20260506040923 61 36 7.0 7.8 0.00 0.00 0.00 76 1009.6
20260506040421 61 55 2.6 5.2 0.00 0.00 0.00 76 1009.8
20260506035917 61 346 7.8 9.6 0.00 0.00 0.00 75 1010.0
20260506035414 61 91 4.3 10.4 0.00 0.00 0.00 75 1009.8
20260506034911 61 56 2.6 7.8 0.00 0.00 0.00 74 1009.6
20260506034408 62 28 5.2 6.1 0.00 0.00 0.00 74 1009.8
20260506033905 62 22 5.2 6.1 0.00 0.00 0.00 74 1010.0
20260506033403 62 359 7.8 10.4 0.00 0.00 0.00 74 1009.8
20260506032859 62 51 4.3 7.0 0.00 0.00 0.00 74 1009.7
20260506032356 62 30 3.5 7.8 0.00 0.00 0.00 74 1009.6
20260506031853 63 340 3.5 7.0 0.00 0.00 0.00 74 1009.3
20260506031350 63 21 3.5 7.0 0.00 0.00 0.00 73 1009.3
20260506030848 63 3 6.1 7.8 0.00 0.00 0.00 73 1008.9
20260506030346 63 34 4.3 9.6 0.00 0.00 0.00 73 1008.9
20260506025842 64 28 4.3 8.7 0.00 0.00 0.00 73 1008.7
20260506025338 64 6 5.2 10.4 0.00 0.00 0.00 73 1008.8
20260506024836 64 58 3.5 11.3 0.00 0.00 0.00 73 1008.6
20260506024333 64 25 4.3 6.1 0.00 0.00 0.00 73 1008.6
20260506023829 64 16 1.7 9.6 0.00 0.00 0.00 73 1008.7
20260506023326 64 56 4.3 5.2 0.00 0.00 0.00 73 1008.3
20260506022822 64 82 5.2 9.6 0.00 0.00 0.00 72 1007.8
20260506022320 65 78 4.3 7.8 0.00 0.00 0.00 72 1007.7
20260506021818 65 79 4.3 9.6 0.00 0.00 0.00 72 1007.7
20260506021315 65 75 3.5 7.0 0.00 0.00 0.00 72 1007.8
20260506020811 65 17 4.3 5.2 0.00 0.00 0.00 72 1007.7
20260506020309 65 60 2.6 5.2 0.00 0.00 0.00 72 1007.7
20260506015807 66 61 2.6 5.2 0.00 0.00 0.00 71 1007.4
20260506015306 66 37 3.5 6.1 0.00 0.00 0.00 71 1007.4
20260506014801 66 27 1.7 6.1 0.00 0.00 0.00 70 1007.8
20260506014257 66 22 4.3 8.7 0.00 0.00 0.00 70 1007.5
20260506013754 66 35 4.3 7.8 0.00 0.00 0.00 70 1007.3
20260506013251 67 20 5.2 5.2 0.00 0.00 0.00 69 1007.1
20260506012748 67 30 4.3 6.1 0.00 0.00 0.00 69 1006.8
20260506012245 67 46 4.3 6.1 0.00 0.00 0.00 68 1006.9
20260506011742 68 59 3.5 6.1 0.00 0.00 0.00 69 1007.0
20260506011238 68 18 4.3 7.8 0.00 0.00 0.00 68 1007.0
20260506010737 68 35 2.6 5.2 0.00 0.00 0.00 68 1006.8
20260506010234 69 41 3.5 12.2 0.00 0.00 0.00 68 1006.3
20260506005731 69 80 3.5 5.2 0.00 0.00 0.00 68 1006.0
20260506005228 69 77 1.7 9.6 0.00 0.00 0.00 67 1005.8
20260506004723 69 335 5.2 11.3 0.00 0.00 0.00 67 1006.0
20260506004221 70 24 4.3 9.6 0.00 0.00 0.00 66 1005.8
20260506003717 70 13 7.8 8.7 0.00 0.00 0.00 66 1005.7
20260506003214 70 34 7.8 8.7 0.00 0.00 0.00 66 1006.1
20260506002710 71 22 7.0 10.4 0.00 0.00 0.00 65 1006.0
20260506002206 71 62 2.6 5.2 0.00 0.00 0.00 65 1005.6
20260506001702 71 3 2.6 7.0 0.00 0.00 0.00 64 1005.5
20260506001159 71 10 4.3 9.6 0.00 0.00 0.00 63 1005.5
20260506000656 71 43 1.7 10.4 0.00 0.00 0.00 63 1005.6
20260506000154 72 113 1.7 9.6 0.00 0.00 0.00 63 1005.9
20260505235651 72 54 3.5 7.8 0.00 0.00 0.00 62 1005.8
20260505235149 72 11 5.2 8.7 0.00 0.00 0.00 62 1005.7
20260505234645 73 22 3.5 7.0 0.00 0.00 0.00 62 1005.7
20260505234142 73 9 3.5 8.7 0.00 0.00 0.00 61 1005.7
20260505233639 74 107 4.3 7.0 0.00 0.00 0.00 61 1005.4
20260505233137 74 83 1.7 5.2 0.00 0.00 0.00 62 1005.5
20260505232634 75 1 2.6 5.2 0.00 0.00 0.00 61 1005.6
20260505232132 75 18 4.3 15.6 0.00 0.00 0.00 60 1005.3
20260505231628 76 29 8.7 11.3 0.00 0.00 0.00 59 1005.4
20260505231127 76 38 5.2 12.2 0.00 0.00 0.00 58 1005.3
20260505230625 77 350 6.1 8.7 0.00 0.00 0.00 58 1005.5
20260505230121 77 32 6.1 9.6 0.00 0.00 0.00 57 1005.4
20260505225617 78 21 5.2 7.8 0.00 0.00 0.00 56 1004.9
20260505225114 79 353 3.5 7.8 0.00 0.00 0.00 55 1004.9
20260505224610 80 355 3.5 9.6 0.00 0.00 0.00 53 1005.0
20260505224108 81 115 3.5 11.3 0.00 0.00 0.00 52 1005.1
20260505223605 81 357 1.7 11.3 0.00 0.00 0.00 53 1005.1
20260505223101 81 322 5.2 7.8 0.00 0.00 0.00 53 1004.8
20260505222558 82 26 1.7 9.6 0.00 0.00 0.00 53 1004.6
20260505222054 83 2 7.0 7.8 0.00 0.00 0.00 53 1004.5
20260505221551 84 338 6.1 10.4 0.00 0.00 0.00 51 1004.6
20260505221047 84 68 3.5 9.6 0.00 0.00 0.00 51 1004.7
20260505220545 84 18 2.6 7.8 0.00 0.00 0.00 51 1004.4
20260505220043 84 25 1.7 7.8 0.00 0.00 0.00 49 1004.4
20260505215541 85 8 5.2 9.6 0.00 0.00 0.00 48 1004.4
20260505215038 86 312 7.0 7.8 0.00 0.00 0.00 44 1004.6
20260505214536 87 334 2.6 10.4 0.00 0.00 0.00 42 1004.6
20260505214032 89 20 2.6 4.3 0.00 0.00 0.00 41 1004.5
20260505213530 88 37 1.7 6.1 0.00 0.00 0.00 40 1004.3
20260505213026 88 302 5.2 7.0 0.00 0.00 0.00 39 1004.6
20260505212523 88 326 5.2 7.8 0.00 0.00 0.00 38 1004.7
20260505212020 88 113 0.9 4.3 0.00 0.00 0.00 40 1004.6
20260505211517 89 18 5.2 5.2 0.00 0.00 0.00 38 1004.7
20260505211014 89 36 6.1 8.7 0.00 0.00 0.00 38 1004.5
20260505210511 89 325 1.7 5.2 0.00 0.00 0.00 41 1004.8
20260505210008 89 341 1.7 6.1 0.00 0.00 0.00 40 1004.6
20260505205506 88 70 1.7 7.0 0.00 0.00 0.00 42 1004.3
20260505205003 89 338 11.3 12.2 0.00 0.00 0.00 41 1004.7
20260505204500 89 278 3.5 7.8 0.00 0.00 0.00 44 1004.4
20260505203957 88 304 3.5 9.6 0.00 0.00 0.00 42 1004.6
20260505203454 89 278 7.0 10.4 0.00 0.00 0.00 42 1004.8
20260505202950 89 238 7.0 9.6 0.00 0.00 0.00 43 1005.0
20260505202447 89 279 7.0 10.4 0.00 0.00 0.00 44 1005.0
20260505201943 89 276 5.2 8.7 0.00 0.00 0.00 44 1005.0
20260505201440 88 273 5.2 8.7 0.00 0.00 0.00 43 1005.0
20260505200938 87 267 7.0 10.4 0.00 0.00 0.00 43 1005.1
20260505200435 87 277 7.8 11.3 0.00 0.00 0.00 42 1005.0
20260505195930 88 271 4.3 9.6 0.00 0.00 0.00 46 1004.9
20260505195428 88 233 6.1 11.3 0.00 0.00 0.00 46 1005.3
20260505194925 88 239 9.6 12.2 0.00 0.00 0.00 46 1005.4
20260505194423 87 283 5.2 8.7 0.00 0.00 0.00 47 1005.4
20260505193922 87 228 6.1 13.0 0.00 0.00 0.00 47 1005.4
20260505193420 87 223 9.6 10.4 0.00 0.00 0.00 50 1005.4
20260505192918 87 276 4.3 8.7 0.00 0.00 0.00 51 1005.4
20260505192416 87 250 5.2 11.3 0.00 0.00 0.00 49 1005.4
20260505191913 87 252 5.2 13.9 0.00 0.00 0.00 51 1005.4
20260505191412 87 212 7.8 13.9 0.00 0.00 0.00 52 1005.3
20260505190908 87 256 7.8 11.3 0.00 0.00 0.00 51 1005.5
20260505190404 87 203 4.3 11.3 0.00 0.00 0.00 53 1005.0
20260505185859 86 268 4.3 13.9 0.00 0.00 0.00 53 1005.1
20260505185356 86 240 9.6 10.4 0.00 0.00 0.00 53 1005.3
20260505184852 85 239 5.2 14.8 0.00 0.00 0.00 55 1005.3
20260505184349 86 226 4.3 13.0 0.00 0.00 0.00 56 1005.1
20260505183846 85 195 2.6 14.8 0.00 0.00 0.00 56 1004.9
20260505183343 85 235 9.6 11.3 0.00 0.00 0.00 55 1005.3
20260505182840 84 226 3.5 9.6 0.00 0.00 0.00 57 1005.3
20260505182337 84 239 7.0 11.3 0.00 0.00 0.00 56 1005.3
20260505181833 84 227 7.8 12.2 0.00 0.00 0.00 59 1005.1
20260505181331 84 237 4.3 10.4 0.00 0.00 0.00 59 1005.4
20260505180827 83 230 7.0 12.2 0.00 0.00 0.00 59 1005.4
20260505180324 83 229 5.2 12.2 0.00 0.00 0.00 60 1005.4
20260505175820 82 231 7.0 14.8 0.00 0.00 0.00 59 1005.4
20260505175317 83 231 8.7 13.0 0.00 0.00 0.00 59 1005.4
20260505174813 83 233 6.1 13.9 0.00 0.00 0.00 61 1005.5
20260505174311 83 223 4.3 11.3 0.00 0.00 0.00 60 1005.7
20260505173806 83 219 9.6 11.3 0.00 0.00 0.00 61 1005.7
20260505173303 82 228 8.7 13.0 0.00 0.00 0.00 63 1005.3
20260505172800 82 226 12.2 14.8 0.00 0.00 0.00 61 1005.3
20260505172257 82 215 12.2 13.0 0.00 0.00 0.00 62 1005.3
20260505171752 82 197 5.2 11.3 0.00 0.00 0.00 63 1005.3
20260505171249 82 236 13.0 13.9 0.00 0.00 0.00 62 1005.4
20260505170746 82 235 10.4 14.8 0.00 0.00 0.00 62 1005.6
20260505170243 82 227 9.6 11.3 0.00 0.00 0.00 63 1005.5
20260505165738 82 228 8.7 10.4 0.00 0.00 0.00 61 1005.3
20260505165234 82 238 9.6 10.4 0.00 0.00 0.00 63 1005.3
20260505164730 81 207 6.1 16.5 0.00 0.00 0.00 65 1005.4
20260505164227 81 222 10.4 14.8 0.00 0.00 0.00 63 1005.5
20260505163725 81 232 13.0 15.6 0.00 0.00 0.00 62 1005.4
20260505163224 81 227 7.0 14.8 0.00 0.00 0.00 63 1005.5
20260505162721 81 229 4.3 21.7 0.00 0.00 0.00 61 1005.0
20260505162218 82 246 11.3 13.9 0.00 0.00 0.00 62 1005.0
20260505161715 82 185 9.6 10.4 0.00 0.00 0.00 63 1005.0
20260505161212 80 230 6.1 17.4 0.00 0.00 0.00 65 1004.8
20260505160710 81 224 7.0 11.3 0.00 0.00 0.00 64 1004.8
20260505160207 80 204 11.3 16.5 0.00 0.00 0.00 64 1004.9
20260505153146 77 224 9.6 14.8 0.00 0.00 0.00 72 1004.9
20260505152643 76 215 3.5 13.9 0.00 0.00 0.00 74 1004.9
20260505152138 76 229 5.2 14.8 0.00 0.00 0.00 73 1004.7
20260505151634 76 219 7.0 13.9 0.00 0.00 0.00 73 1004.9
20260505151132 77 219 4.3 13.0 0.00 0.00 0.00 73 1004.9
20260505150628 75 230 7.0 9.6 0.00 0.00 0.00 75 1004.8
20260505150125 75 234 2.6 7.8 0.00 0.00 0.00 75 1004.8
20260505140553 71 224 2.6 8.7 0.00 0.00 0.00 83 1004.9
20260505125007 68 201 4.3 9.6 0.00 0.00 0.00 87 1004.4
20260505124503 68 204 7.0 7.0 0.00 0.00 0.00 88 1004.4
20260505124000 68 176 3.5 6.1 0.00 0.00 0.00 88 1004.4
20260505123456 68 181 3.5 7.0 0.00 0.00 0.00 88 1004.4
20260505122952 67 203 3.5 7.8 0.00 0.00 0.00 88 1004.2
20260505122450 67 203 1.7 7.0 0.00 0.00 0.00 88 1004.1
20260505121946 67 172 3.5 5.2 0.00 0.00 0.00 88 1004.0
20260505121443 67 181 1.7 4.3 0.00 0.00 0.00 88 1004.0
20260505120939 67 203 2.6 7.8 0.00 0.00 0.00 88 1004.0
20260505120436 67 201 4.3 5.2 0.00 0.00 0.00 88 1003.9
20260505115935 67 205 1.7 5.2 0.00 0.00 0.00 88 1003.8
20260505115432 67 201 3.5 8.7 0.00 0.00 0.00 88 1004.0
20260505114930 67 189 2.6 4.3 0.00 0.00 0.00 88 1004.0
20260505114425 67 207 4.3 5.2 0.00 0.00 0.00 88 1003.7
20260505113922 67 219 5.2 6.1 0.00 0.00 0.00 88 1003.8
20260505113419 67 189 4.3 5.2 0.00 0.00 0.00 87 1003.8
20260505112914 67 207 1.7 5.2 0.00 0.00 0.00 87 1003.9
20260505112413 67 201 6.1 7.8 0.00 0.00 0.00 87 1004.0
20260505111909 67 241 1.7 5.2 0.00 0.00 0.00 87 1003.6
20260505111409 67 200 4.3 5.2 0.00 0.00 0.00 87 1003.8
20260505110905 67 212 4.3 7.0 0.00 0.00 0.00 87 1003.7
20260505110402 67 166 3.5 7.8 0.00 0.00 0.00 87 1003.7
20260505101833 68 209 7.0 7.8 0.00 0.00 0.00 85 1003.6
20260505101328 68 221 1.7 7.8 0.00 0.00 0.00 84 1003.4
20260505100824 68 157 3.5 8.7 0.00 0.00 0.00 84 1003.6
20260505100321 68 193 3.5 8.7 0.00 0.00 0.00 84 1003.7
20260505095816 68 201 5.2 7.8 0.00 0.00 0.00 84 1003.7
20260505095314 68 186 5.2 10.4 0.00 0.00 0.00 83 1003.8
20260505094810 68 197 2.6 8.7 0.00 0.00 0.00 83 1003.7
20260505094307 68 209 7.0 9.6 0.00 0.00 0.00 83 1003.5
20260505093802 69 209 5.2 7.0 0.00 0.00 0.00 83 1003.9
20260505093301 69 199 7.0 8.7 0.00 0.00 0.00 82 1004.0
20260505092757 69 199 4.3 7.8 0.00 0.00 0.00 82 1003.7
20260505092255 69 235 2.6 9.6 0.00 0.00 0.00 82 1003.7
20260505091753 69 166 3.5 8.7 0.00 0.00 0.00 82 1003.8
20260505091250 69 217 4.3 7.0 0.00 0.00 0.00 81 1003.8
20260505090748 69 217 5.2 8.7 0.00 0.00 0.00 81 1003.9
20260505090246 69 234 5.2 7.8 0.00 0.00 0.00 81 1004.1
20260505085743 69 205 2.6 7.0 0.00 0.00 0.00 81 1003.9
20260505085241 69 136 5.2 7.0 0.00 0.00 0.00 81 1003.9
20260505084738 69 227 2.6 11.3 0.00 0.00 0.00 80 1004.2
20260505084238 69 202 5.2 8.7 0.00 0.00 0.00 80 1004.2
20260505083734 70 213 6.1 8.7 0.00 0.00 0.00 80 1004.2
20260505083230 70 187 4.3 10.4 0.00 0.00 0.00 79 1004.2
20260505082726 70 192 5.2 9.6 0.00 0.00 0.00 79 1004.2
20260505082224 70 229 6.1 10.4 0.00 0.00 0.00 79 1004.3
20260505081719 70 167 2.6 9.6 0.00 0.00 0.00 79 1004.1
20260505081217 70 236 3.5 8.7 0.00 0.00 0.00 79 1004.3
20260505080714 70 203 4.3 7.8 0.00 0.00 0.00 78 1004.0
20260505080210 70 217 5.2 8.7 0.00 0.00 0.00 78 1004.1
20260505075706 70 216 7.0 8.7 0.00 0.00 0.00 78 1004.0
20260505075203 71 203 7.8 9.6 0.00 0.00 0.00 77 1004.3
20260505074700 71 206 3.5 7.8 0.00 0.00 0.00 77 1004.1
20260505074157 71 147 0.9 7.0 0.00 0.00 0.00 77 1004.4
20260505073654 71 168 6.1 8.7 0.00 0.00 0.00 76 1004.2
20260505073153 71 188 5.2 10.4 0.00 0.00 0.00 76 1004.4
20260505072648 71 186 3.5 9.6 0.00 0.00 0.00 76 1004.3
20260505072145 71 218 3.5 7.8 0.00 0.00 0.00 76 1004.7
20260505071640 71 211 5.2 10.4 0.00 0.00 0.00 75 1004.5
20260505071138 72 169 2.6 7.0 0.00 0.00 0.00 75 1004.5
20260505070635 72 168 3.5 9.6 0.00 0.00 0.00 75 1004.7